Вернуться в каталог

Lobachevsky

АктивенЛюбительское радиоSSO
NORAD 67284·PAYLOAD·🇷🇺 Russia

Запущен Dec 28, 2025 с Vostochny Cosmodrome

Loading…

Ближайшие Пролёты (ближайшие 24 часа)

TLE

СвежийSource: Space-Track

Эпоха: Sep 14, 2026, 10:28 UTC

1 67284U 25313AN  26257.43675007  .00003967  00000-0  16826-3 0  9996
2 67284  97.3849 330.7363 0011648  52.1276 308.1012 15.23628885 39541

Отслеживайте Lobachevsky в реальном времени с AllMySat

Download on the App Store